Shannon, Ireland

1:06 PM IST on September 22, 2017 (GMT +0100)
Shannon

Weather History for EINN - November, 2012

Change the Weather History Date:

Monday, November 26, 2012

  Actual Average Record
Temperature  
Mean Temperature 42 °F -  
Max Temperature 47 °F 48 °F 57 °F (2011)
Min Temperature 37 °F 38 °F 33 °F (2005)
Degree Days  
Heating Degree Days 23    
Moisture  
Dew Point 37 °F    
Average Humidity 80    
Maximum Humidity 93    
Minimum Humidity 66    
Precipitation  
Precipitation 0.02 in 0.13 in - ()
Sea Level Pressure  
Sea Level Pressure 29.85 in    
Wind  
Wind Speed 14 mph ()    
Max Wind Speed 22 mph    
Max Gust Speed 34 mph    
Visibility 6.5 miles    
Events Rain    
Averages and records for this station are not official NWS values.
T = Trace of Precipitation, MM = Missing Value Source: Averaged Metar Reports

Daily Weather History Graph

Daily Weather History Graph

Search for Another Location

Airport or City:

Trip Planner

Search our weather history database for the weather conditions in past years. The results will help you decide how hot, cold, wet, or windy it might be!

Date:

Astronomy

Nov. 26, 2012 Rise Set
Actual Time 8:17 AM GMT 4:28 PM GMT
Civil Twilight 7:37 AM GMT 5:08 PM GMT
Nautical Twilight 6:54 AM GMT 5:51 PM GMT
Astronomical Twilight 6:13 AM GMT 6:32 PM GMT
Moon 3:20 PM GMT (11/26) 6:04 AM GMT (11/26)
Length of Visible Light 9h 30m
Length of Day
8h 10m
Waxing Gibbous, 96% of the Moon is Illuminated
Nov 26
Waxing Gibbous
Nov 28
Full
Dec 6
Last Quarter
Dec 13
New
Dec 20
First Quarter

Hourly Weather History & Observations

Time (GMT) Temp. Windchill Dew Point Humidity Pressure Visibility Wind Dir Wind Speed Gust Speed Precip Events Conditions
12:00 AM 38 °F - 34 °F 81% 29.65 in 12 mi NNW 13.4 mph - -   Partly Cloudy
12:00 AM 37.4 °F 28.9 °F 33.8 °F 87% 29.62 in 6.2 mi NNW 13.8 mph - N/A   Scattered Clouds
12:30 AM 37.4 °F 28.9 °F 33.8 °F 87% 29.65 in 6.2 mi NNW 13.8 mph - N/A   Scattered Clouds
1:00 AM 39.2 °F 32.5 °F 35.6 °F 87% 29.65 in 6.2 mi NNW 10.4 mph - N/A   Mostly Cloudy
1:30 AM 39.2 °F 33.6 °F 35.6 °F 87% 29.68 in 6.2 mi NW 8.1 mph - N/A   Mostly Cloudy
2:00 AM 39.2 °F 32.5 °F 35.6 °F 87% 29.68 in 6.2 mi NNW 10.4 mph - N/A   Mostly Cloudy
2:30 AM 41.0 °F 34.7 °F 37.4 °F 87% 29.68 in 6.2 mi NNW 10.4 mph - N/A   Mostly Cloudy
3:00 AM 42.8 °F 35.8 °F 37.4 °F 81% 29.68 in 6.2 mi NNW 13.8 mph - N/A   Mostly Cloudy
3:30 AM 42.8 °F 35.1 °F 39.2 °F 87% 29.71 in 6.2 mi NNW 16.1 mph - N/A   Mostly Cloudy
4:00 AM 42.8 °F 35.1 °F 39.2 °F 87% 29.71 in 6.2 mi NW 16.1 mph - N/A   Mostly Cloudy
4:30 AM 42.8 °F 36.6 °F 37.4 °F 81% 29.71 in 6.2 mi NNW 11.5 mph - N/A   Mostly Cloudy
5:00 AM 42.8 °F 35.8 °F 37.4 °F 81% 29.74 in 6.2 mi NNW 13.8 mph - N/A   Scattered Clouds
5:30 AM 42.8 °F 36.6 °F 37.4 °F 81% 29.74 in 6.2 mi NNW 11.5 mph - N/A   Scattered Clouds
6:00 AM 43 °F - 38 °F 77% 29.77 in 12 mi NW 13.4 mph - - Rain Light Rain Showers
6:00 AM 42.8 °F 35.8 °F 37.4 °F 81% 29.74 in 6.2 mi NW 13.8 mph - N/A   Mostly Cloudy
6:30 AM 42.8 °F 35.4 °F 39.2 °F 87% 29.77 in 6.2 mi NW 15.0 mph - N/A   Scattered Clouds
7:00 AM 42.8 °F 35.8 °F 39.2 °F 87% 29.77 in 6.2 mi NNW 13.8 mph - N/A Rain Light Rain Showers
7:30 AM 42.8 °F 35.1 °F 39.2 °F 87% 29.77 in 6.2 mi NNW 16.1 mph - N/A   Mostly Cloudy
8:00 AM 44.6 °F 37.8 °F 39.2 °F 81% 29.80 in 6.2 mi NNW 15.0 mph - N/A   Mostly Cloudy
8:30 AM 44.6 °F 38.1 °F 41.0 °F 87% 29.83 in 6.2 mi NNW 13.8 mph - N/A Rain Light Rain Showers
9:00 AM 44.6 °F 37.8 °F 39.2 °F 81% 29.83 in 6.2 mi NNW 15.0 mph - N/A   Mostly Cloudy
9:30 AM 42.8 °F 35.1 °F 41.0 °F 93% 29.83 in 6.2 mi NW 16.1 mph - N/A Rain Light Rain Showers
10:00 AM 44.6 °F 36.6 °F 39.2 °F 81% 29.86 in 6.2 mi NNW 19.6 mph - N/A Rain Light Rain Showers
10:30 AM 44.6 °F 36.4 °F 39.2 °F 81% 29.86 in 6.2 mi NNW 20.7 mph - N/A   Scattered Clouds
11:00 AM 44.6 °F 36.4 °F 39.2 °F 81% 29.86 in 6.2 mi NNW 20.7 mph 34.5 mph N/A   Scattered Clouds
11:30 AM 44.6 °F 38.1 °F 41.0 °F 87% 29.89 in 6.2 mi NNW 13.8 mph - N/A   Mostly Cloudy
12:00 PM 46 °F - 39 °F 69% 29.89 in 25 mi NNW 17.9 mph - -   Partly Cloudy
12:00 PM 46.4 °F 39.2 °F 39.2 °F 76% 29.89 in 6.2 mi NNW 18.4 mph - N/A   Mostly Cloudy
12:30 PM 46.4 °F 39.0 °F 39.2 °F 76% 29.89 in 6.2 mi NNW 19.6 mph 31.1 mph N/A   Mostly Cloudy
1:00 PM 46.4 °F 39.2 °F 37.4 °F 71% 29.89 in 6.2 mi NNW 18.4 mph - N/A   Mostly Cloudy
1:30 PM 46.4 °F 39.5 °F 37.4 °F 71% 29.89 in 6.2 mi NNW 17.3 mph - N/A   Scattered Clouds
2:00 PM 48.2 °F - 37.4 °F 66% 29.89 in 6.2 mi NNW 21.9 mph 34.5 mph N/A   Scattered Clouds
2:30 PM 46.4 °F 39.2 °F 37.4 °F 71% 29.92 in 6.2 mi NNW 18.4 mph 29.9 mph N/A   Partly Cloudy
3:00 PM 46.4 °F 38.7 °F 37.4 °F 71% 29.92 in 6.2 mi NNW 20.7 mph 33.4 mph N/A   Scattered Clouds
3:30 PM 46.4 °F 39.0 °F 37.4 °F 71% 29.92 in 6.2 mi NNW 19.6 mph 31.1 mph N/A Rain Light Rain Showers
4:00 PM 44.6 °F 36.1 °F 37.4 °F 76% 29.92 in 6.2 mi NNW 21.9 mph 33.4 mph N/A   Partly Cloudy
4:30 PM 44.6 °F 37.2 °F 37.4 °F 76% 29.95 in 6.2 mi NNW 17.3 mph - N/A Rain Light Rain Showers
5:00 PM 44.6 °F 36.1 °F 37.4 °F 76% 29.95 in 6.2 mi NW 21.9 mph - N/A   Partly Cloudy
5:30 PM 42.8 °F 34.8 °F 37.4 °F 81% 29.95 in 6.2 mi NNW 17.3 mph - N/A   Partly Cloudy
6:00 PM 43 °F - 37 °F 72% 29.98 in 12 mi NNW 17.9 mph - -   Partly Cloudy
6:00 PM 42.8 °F 34.8 °F 37.4 °F 81% 29.95 in 6.2 mi NNW 17.3 mph - N/A   Partly Cloudy
6:30 PM 44.6 °F 36.6 °F 37.4 °F 76% 29.95 in 6.2 mi NNW 19.6 mph - N/A   Partly Cloudy
7:00 PM 42.8 °F 34.3 °F 37.4 °F 81% 29.98 in 6.2 mi NNW 19.6 mph - N/A   Partly Cloudy
7:30 PM 42.8 °F 34.0 °F 37.4 °F 81% 29.98 in 6.2 mi NNW 20.7 mph - N/A   Partly Cloudy
8:00 PM 42.8 °F 34.5 °F 35.6 °F 76% 29.98 in 6.2 mi NNW 18.4 mph - N/A   Partly Cloudy
8:30 PM 41.0 °F 32.8 °F 35.6 °F 81% 29.98 in 6.2 mi NW 16.1 mph - N/A   Partly Cloudy
9:00 PM 41.0 °F 32.5 °F 35.6 °F 81% 30.01 in 6.2 mi NW 17.3 mph - N/A   Partly Cloudy
9:30 PM 41.0 °F 33.5 °F 35.6 °F 81% 30.01 in 6.2 mi NW 13.8 mph - N/A   Partly Cloudy
10:00 PM 41.0 °F 33.1 °F 35.6 °F 81% 30.01 in 6.2 mi NNW 15.0 mph - N/A   Scattered Clouds
10:30 PM 41.0 °F 33.9 °F 35.6 °F 81% 30.01 in 6.2 mi NW 12.7 mph - N/A   Partly Cloudy
11:00 PM 41.0 °F 33.9 °F 35.6 °F 81% 30.01 in 6.2 mi NW 12.7 mph - N/A   Partly Cloudy
11:30 PM 41.0 °F 34.3 °F 35.6 °F 81% 30.01 in 6.2 mi NW 11.5 mph - N/A   Partly Cloudy